Time,TemperatureF,DewpointF,PressureIn,WindDirection,WindDirectionDegrees,WindSpeedMPH,WindSpeedGustMPH,Humidity,HourlyPrecipIn,Conditions,Clouds,dailyrainin,SoftwareType,DateUTC
2013-03-13 00:09:00,40.1,14.6,29.99,WNW,296,6.0,12.0,35,0.00,CLR,,0.00,WeatherDisplay:10.37,2013-03-13 04:09:00,
2013-03-13 00:18:00,40.1,13.3,29.99,WNW,300,7.0,12.0,33,0.00,CLR,,0.00,WeatherDisplay:10.37,2013-03-13 04:18:00,
2013-03-13 00:29:00,40.1,12.6,29.99,WNW,299,7.0,14.0,32,0.00,CLR,,0.00,WeatherDisplay:10.37,2013-03-13 04:29:00,
2013-03-13 00:39:00,40.1,11.8,29.99,WNW,294,6.0,15.0,31,0.00,CLR,,0.00,WeatherDisplay:10.37,2013-03-13 04:39:00,
2013-03-13 00:49:00,39.9,11.7,29.99,NW,306,8.0,15.0,31,0.00,CLR,,0.00,WeatherDisplay:10.37,2013-03-13 04:49:00,
2013-03-13 00:58:00,39.7,11.5,29.96,WNW,299,8.0,13.0,31,0.00,CLR,,0.00,WeatherDisplay:10.37,2013-03-13 04:58:00,
2013-03-13 01:09:00,39.6,11.4,29.96,WNW,303,8.0,15.0,31,0.00,CLR,,0.00,WeatherDisplay:10.37,2013-03-13 05:09:00,
2013-03-13 01:19:00,39.6,11.4,29.96,NW,304,6.0,12.0,31,0.00,CLR,,0.00,WeatherDisplay:10.37,2013-03-13 05:19:00,
2013-03-13 01:29:00,39.4,11.2,29.99,WNW,302,5.0,9.0,31,0.00,CLR,,0.00,WeatherDisplay:10.37,2013-03-13 05:29:00,
2013-03-13 01:38:00,39.0,10.9,29.96,NW,304,7.0,13.0,31,0.00,CLR,,0.00,WeatherDisplay:10.37,2013-03-13 05:38:00,
2013-03-13 01:48:00,39.2,11.0,29.96,WNW,287,5.0,13.0,31,0.00,CLR,,0.00,WeatherDisplay:10.37,2013-03-13 05:48:00,
2013-03-13 01:58:00,38.8,10.7,29.96,WNW,289,3.0,9.0,31,0.00,CLR,,0.00,WeatherDisplay:10.37,2013-03-13 05:58:00,
2013-03-13 02:09:00,38.8,10.7,29.96,WNW,295,6.0,11.0,31,0.00,CLR,,0.00,WeatherDisplay:10.37,2013-03-13 06:09:00,
2013-03-13 02:19:00,38.7,10.6,29.96,WNW,283,5.0,10.0,31,0.00,CLR,,0.00,WeatherDisplay:10.37,2013-03-13 06:19:00,
2013-03-13 02:28:00,38.3,10.3,29.96,West,281,5.0,6.0,31,0.00,CLR,,0.00,WeatherDisplay:10.37,2013-03-13 06:28:00,
2013-03-13 02:39:00,38.1,10.1,29.96,WNW,283,5.0,6.0,31,0.00,CLR,,0.00,WeatherDisplay:10.37,2013-03-13 06:39:00,
2013-03-13 02:48:00,37.8,9.8,29.96,NW,305,2.0,6.0,31,0.00,CLR,,0.00,WeatherDisplay:10.37,2013-03-13 06:48:00,
2013-03-13 02:58:00,37.8,10.5,29.96,NW,308,2.0,8.0,32,0.00,CLR,,0.00,WeatherDisplay:10.37,2013-03-13 06:58:00,
2013-03-13 03:09:00,37.4,10.2,29.96,WNW,291,3.0,6.0,32,0.00,CLR,,0.00,WeatherDisplay:10.37,2013-03-13 07:09:00,
2013-03-13 03:19:00,36.9,10.4,29.96,NW,306,3.0,6.0,33,0.00,CLR,,0.00,WeatherDisplay:10.37,2013-03-13 07:19:00,
2013-03-13 03:29:00,36.3,10.5,29.96,NW,315,3.0,6.0,34,0.00,CLR,,0.00,WeatherDisplay:10.37,2013-03-13 07:29:00,
2013-03-13 03:39:00,36.0,11.6,29.96,NW,313,3.0,6.0,36,0.00,CLR,,0.00,WeatherDisplay:10.37,2013-03-13 07:39:00,
2013-03-13 03:49:00,36.0,11.6,29.96,NW,305,0.0,4.0,36,0.00,CLR,,0.00,WeatherDisplay:10.37,2013-03-13 07:49:00,
2013-03-13 03:58:00,35.8,11.4,29.93,NW,309,0.0,0.0,36,0.00,CLR,,0.00,WeatherDisplay:10.37,2013-03-13 07:58:00,
2013-03-13 04:09:00,34.9,11.2,29.93,NW,310,0.0,0.0,37,0.00,CLR,,0.00,WeatherDisplay:10.37,2013-03-13 08:09:00,
2013-03-13 04:18:00,34.2,12.3,29.93,NW,310,0.0,0.0,40,0.00,CLR,,0.00,WeatherDisplay:10.37,2013-03-13 08:18:00,
2013-03-13 04:29:00,32.8,11.7,29.93,NW,310,0.0,0.0,41,0.00,CLR,,0.00,WeatherDisplay:10.37,2013-03-13 08:29:00,
2013-03-13 04:38:00,32.0,12.0,29.93,NW,310,0.0,0.0,43,0.00,CLR,,0.00,WeatherDisplay:10.37,2013-03-13 08:38:00,
2013-03-13 04:49:00,31.5,12.6,29.93,NW,308,0.0,3.0,45,0.00,CLR,,0.00,WeatherDisplay:10.37,2013-03-13 08:49:00,
2013-03-13 04:58:00,31.1,13.2,29.93,NE,52,0.0,0.0,47,0.00,CLR,,0.00,WeatherDisplay:10.37,2013-03-13 08:58:00,
2013-03-13 05:09:00,31.1,14.1,29.93,ESE,106,2.0,4.0,49,0.00,CLR,,0.00,WeatherDisplay:10.37,2013-03-13 09:09:00,
2013-03-13 05:19:00,30.7,14.3,29.93,East,89,2.0,4.0,50,0.00,CLR,,0.00,WeatherDisplay:10.37,2013-03-13 09:19:00,
2013-03-13 05:29:00,30.4,14.8,29.93,East,97,0.0,4.0,52,0.00,CLR,,0.00,WeatherDisplay:10.37,2013-03-13 09:29:00,
2013-03-13 05:39:00,30.4,14.8,29.96,East,99,0.0,0.0,52,0.00,CLR,,0.00,WeatherDisplay:10.37,2013-03-13 09:39:00,
2013-03-13 05:48:00,30.2,15.1,29.96,East,99,0.0,0.0,53,0.00,CLR,,0.00,WeatherDisplay:10.37,2013-03-13 09:48:00,
2013-03-13 05:58:00,30.0,15.4,29.93,East,99,0.0,0.0,54,0.00,CLR,,0.00,WeatherDisplay:10.37,2013-03-13 09:58:00,
2013-03-13 06:08:00,29.8,15.2,29.96,East,99,0.0,3.0,54,0.00,CLR,,0.00,WeatherDisplay:10.37,2013-03-13 10:08:00,
2013-03-13 06:19:00,30.4,16.1,29.96,ESE,113,3.0,4.0,55,0.00,CLR,,0.00,WeatherDisplay:10.37,2013-03-13 10:19:00,
2013-03-13 06:29:00,30.4,16.1,29.96,East,100,2.0,4.0,55,0.00,CLR,,0.00,WeatherDisplay:10.37,2013-03-13 10:29:00,
2013-03-13 06:38:00,30.2,15.5,29.96,East,85,0.0,3.0,54,0.00,CLR,,0.00,WeatherDisplay:10.37,2013-03-13 10:38:00,
2013-03-13 06:49:00,29.8,15.2,29.96,East,95,3.0,4.0,54,0.00,CLR,,0.00,WeatherDisplay:10.37,2013-03-13 10:49:00,
2013-03-13 06:58:00,29.7,15.5,29.96,East,98,0.0,5.0,55,0.00,CLR,,0.00,WeatherDisplay:10.37,2013-03-13 10:58:00,
2013-03-13 07:09:00,29.7,15.9,29.96,East,90,2.0,3.0,56,0.00,CLR,,0.00,WeatherDisplay:10.37,2013-03-13 11:09:00,
2013-03-13 07:18:00,30.0,16.2,29.96,East,90,0.0,3.0,56,0.00,CLR,,0.00,WeatherDisplay:10.37,2013-03-13 11:18:00,
2013-03-13 07:29:00,30.4,16.5,29.96,East,90,0.0,0.0,56,0.00,CLR,,0.00,WeatherDisplay:10.37,2013-03-13 11:29:00,
2013-03-13 07:38:00,30.9,17.5,29.96,East,90,0.0,0.0,57,0.00,CLR,,0.00,WeatherDisplay:10.37,2013-03-13 11:38:00,
2013-03-13 07:48:00,31.3,17.4,29.96,ESE,109,3.0,4.0,56,0.00,CLR,,0.00,WeatherDisplay:10.37,2013-03-13 11:48:00,
2013-03-13 07:58:00,31.3,17.0,29.96,ESE,105,3.0,5.0,55,0.00,CLR,,0.00,WeatherDisplay:10.37,2013-03-13 11:58:00,
2013-03-13 08:09:00,31.8,17.0,29.96,East,98,0.0,4.0,54,0.00,CLR,,0.00,WeatherDisplay:10.37,2013-03-13 12:09:00,
2013-03-13 08:19:00,32.2,17.4,29.96,East,98,0.0,0.0,54,0.00,CLR,,0.00,WeatherDisplay:10.37,2013-03-13 12:19:00,
2013-03-13 08:29:00,33.2,18.3,29.96,East,97,0.0,0.0,54,0.00,CLR,,0.00,WeatherDisplay:10.37,2013-03-13 12:29:00,
2013-03-13 08:39:00,34.5,18.7,29.96,East,98,2.0,3.0,52,0.00,CLR,,0.00,WeatherDisplay:10.37,2013-03-13 12:39:00,
2013-03-13 08:49:00,36.4,20.0,29.96,SSE,158,2.0,3.0,51,0.00,CLR,,0.00,WeatherDisplay:10.37,2013-03-13 12:49:00,
2013-03-13 08:58:00,38.2,21.6,29.96,South,182,0.0,4.0,51,0.00,CLR,,0.00,WeatherDisplay:10.37,2013-03-13 12:58:00,
2013-03-13 09:08:00,38.8,20.8,29.96,WSW,253,2.0,4.0,48,0.00,CLR,,0.00,WeatherDisplay:10.37,2013-03-13 13:08:00,
2013-03-13 09:19:00,39.4,17.1,29.96,West,276,3.0,4.0,40,0.00,CLR,,0.00,WeatherDisplay:10.37,2013-03-13 13:19:00,
2013-03-13 09:29:00,40.1,17.1,29.96,WSW,249,3.0,8.0,39,0.00,CLR,,0.00,WeatherDisplay:10.37,2013-03-13 13:29:00,
2013-03-13 09:38:00,40.6,17.6,29.96,West,264,7.0,8.0,39,0.00,CLR,,0.00,WeatherDisplay:10.37,2013-03-13 13:38:00,
2013-03-13 09:49:00,41.3,17.6,29.96,WSW,243,5.0,7.0,38,0.00,CLR,,0.00,WeatherDisplay:10.37,2013-03-13 13:49:00,
2013-03-13 09:58:00,41.9,18.1,29.96,West,273,7.0,9.0,38,0.00,CLR,,0.00,WeatherDisplay:10.37,2013-03-13 13:58:00,
2013-03-13 10:09:00,42.3,16.5,29.96,West,273,6.0,11.0,35,0.00,CLR,,0.00,WeatherDisplay:10.37,2013-03-13 14:09:00,
2013-03-13 10:18:00,42.4,15.3,29.96,WSW,238,3.0,8.0,33,0.00,CLR,,0.00,WeatherDisplay:10.37,2013-03-13 14:18:00,
2013-03-13 10:29:00,43.2,16.0,29.96,West,271,8.0,11.0,33,0.00,CLR,,0.00,WeatherDisplay:10.37,2013-03-13 14:29:00,
2013-03-13 10:39:00,43.2,14.5,29.96,West,259,3.0,11.0,31,0.00,CLR,,0.00,WeatherDisplay:10.37,2013-03-13 14:39:00,
2013-03-13 10:49:00,42.6,14.8,29.96,West,262,6.0,9.0,32,0.00,CLR,,0.00,WeatherDisplay:10.37,2013-03-13 14:49:00,
2013-03-13 10:59:00,42.4,14.6,29.96,West,261,7.0,13.0,32,0.00,CLR,,0.00,WeatherDisplay:10.37,2013-03-13 14:59:00,
2013-03-13 11:09:00,42.4,14.6,29.96,West,275,8.0,15.0,32,0.00,CLR,,0.00,WeatherDisplay:10.37,2013-03-13 15:09:00,
2013-03-13 11:19:00,43.2,15.3,29.96,West,277,12.0,15.0,32,0.00,CLR,,0.00,WeatherDisplay:10.37,2013-03-13 15:19:00,
2013-03-13 11:29:00,43.9,13.6,29.93,WNW,297,8.0,15.0,29,0.00,CLR,,0.00,WeatherDisplay:10.37,2013-03-13 15:29:00,
2013-03-13 11:39:00,43.4,14.0,29.93,NW,316,8.0,13.0,30,0.00,CLR,,0.00,WeatherDisplay:10.37,2013-03-13 15:39:00,
2013-03-13 11:49:00,42.1,13.6,29.93,WNW,298,6.0,12.0,31,0.00,CLR,,0.00,WeatherDisplay:10.37,2013-03-13 15:49:00,
2013-03-13 11:59:00,41.8,12.6,29.96,WNW,285,9.0,18.0,30,0.00,CLR,,0.00,WeatherDisplay:10.37,2013-03-13 15:59:00,
2013-03-13 12:09:00,42.7,12.6,29.96,WNW,284,13.0,21.0,29,0.00,CLR,,0.00,WeatherDisplay:10.37,2013-03-13 16:09:00,
2013-03-13 12:19:00,44.4,13.3,29.96,West,275,17.0,24.0,28,0.00,CLR,,0.00,WeatherDisplay:10.37,2013-03-13 16:19:00,
2013-03-13 12:29:00,45.0,6.2,29.96,West,273,10.0,23.0,20,0.00,CLR,,0.00,WeatherDisplay:10.37,2013-03-13 16:29:00,
2013-03-13 12:39:00,44.2,5.6,29.93,West,268,10.0,16.0,20,0.00,CLR,,0.00,WeatherDisplay:10.37,2013-03-13 16:39:00,
2013-03-13 12:49:00,45.4,6.6,29.93,West,270,9.0,17.0,20,0.00,CLR,,0.00,WeatherDisplay:10.37,2013-03-13 16:49:00,
2013-03-13 12:58:00,46.8,5.4,29.93,WNW,297,10.0,15.0,18,0.00,CLR,,0.00,WeatherDisplay:10.37,2013-03-13 16:58:00,
2013-03-13 13:09:00,44.8,2.5,29.93,WNW,300,12.0,27.0,17,0.00,CLR,,0.00,WeatherDisplay:10.37,2013-03-13 17:09:00,
2013-03-13 13:19:00,44.1,3.2,29.93,WNW,287,9.0,22.0,18,0.00,CLR,,0.00,WeatherDisplay:10.37,2013-03-13 17:19:00,
2013-03-13 13:29:00,45.4,3.1,29.93,WNW,284,13.0,20.0,17,0.00,CLR,,0.00,WeatherDisplay:10.37,2013-03-13 17:29:00,
2013-03-13 13:39:00,45.4,3.0,29.93,WNW,290,13.0,16.0,17,0.00,CLR,,0.00,WeatherDisplay:10.37,2013-03-13 17:39:00,
2013-03-13 13:49:00,46.2,3.7,29.93,WNW,287,13.0,16.0,17,0.00,CLR,,0.00,WeatherDisplay:10.37,2013-03-13 17:49:00,
2013-03-13 13:59:00,45.1,2.8,29.93,West,280,13.0,23.0,17,0.00,CLR,,0.00,WeatherDisplay:10.37,2013-03-13 17:59:00,
2013-03-13 14:09:00,45.3,3.0,29.90,West,274,15.0,20.0,17,0.00,CLR,,0.00,WeatherDisplay:10.37,2013-03-13 18:09:00,
2013-03-13 14:19:00,44.6,3.6,29.90,West,270,13.0,17.0,18,0.00,CLR,,0.00,WeatherDisplay:10.37,2013-03-13 18:19:00,
2013-03-13 14:29:00,45.0,2.7,29.90,WNW,286,8.0,21.0,17,0.00,CLR,,0.00,WeatherDisplay:10.37,2013-03-13 18:29:00,
2013-03-13 14:39:00,44.2,3.3,29.93,West,279,12.0,19.0,18,0.00,CLR,,0.00,WeatherDisplay:10.37,2013-03-13 18:39:00,
2013-03-13 14:49:00,44.8,2.5,29.93,West,275,15.0,20.0,17,0.00,CLR,,0.00,WeatherDisplay:10.37,2013-03-13 18:49:00,
2013-03-13 14:58:00,45.6,3.2,29.93,West,276,12.0,17.0,17,0.00,CLR,,0.00,WeatherDisplay:10.37,2013-03-13 18:58:00,
2013-03-13 15:09:00,45.3,3.0,29.93,WNW,288,13.0,23.0,17,0.00,CLR,,0.00,WeatherDisplay:10.37,2013-03-13 19:09:00,
2013-03-13 15:19:00,45.8,3.4,29.93,WNW,284,12.0,20.0,17,0.00,CLR,,0.00,WeatherDisplay:10.37,2013-03-13 19:19:00,
2013-03-13 15:29:00,46.0,3.6,29.93,West,273,10.0,20.0,17,0.00,CLR,,0.00,WeatherDisplay:10.37,2013-03-13 19:29:00,
2013-03-13 15:39:00,45.7,3.3,29.93,West,271,12.0,17.0,17,0.00,CLR,,0.00,WeatherDisplay:10.37,2013-03-13 19:39:00,
2013-03-13 15:49:00,45.8,3.4,29.93,West,280,18.0,23.0,17,0.00,CLR,,0.00,WeatherDisplay:10.37,2013-03-13 19:49:00,
2013-03-13 15:59:00,46.7,4.1,29.93,West,267,9.0,22.0,17,0.00,CLR,,0.00,WeatherDisplay:10.37,2013-03-13 19:59:00,
2013-03-13 16:09:00,45.3,3.0,29.93,West,272,14.0,22.0,17,0.00,CLR,,0.00,WeatherDisplay:10.37,2013-03-13 20:09:00,
2013-03-13 16:19:00,44.0,5.5,29.93,WNW,290,8.0,22.0,20,0.00,CLR,,0.00,WeatherDisplay:10.37,2013-03-13 20:19:00,
2013-03-13 16:29:00,43.2,4.7,29.93,WNW,300,8.0,23.0,20,0.00,CLR,,0.00,WeatherDisplay:10.37,2013-03-13 20:29:00,
2013-03-13 16:39:00,41.9,11.1,29.93,NW,311,7.0,13.0,28,0.00,CLR,,0.00,WeatherDisplay:10.37,2013-03-13 20:39:00,
2013-03-13 16:49:00,40.8,11.7,29.93,WNW,288,7.0,13.0,30,0.00,CLR,,0.00,WeatherDisplay:10.37,2013-03-13 20:49:00,
2013-03-13 16:59:00,41.0,12.6,29.96,WNW,287,10.0,18.0,31,0.00,CLR,,0.00,WeatherDisplay:10.37,2013-03-13 20:59:00,
2013-03-13 17:09:00,39.7,17.3,29.96,WNW,303,9.0,17.0,40,0.00,CLR,,0.00,WeatherDisplay:10.37,2013-03-13 21:09:00,
2013-03-13 17:19:00,39.6,18.4,29.96,WNW,292,10.0,15.0,42,0.00,CLR,,0.00,WeatherDisplay:10.37,2013-03-13 21:19:00,
2013-03-13 17:29:00,40.3,15.4,29.96,WNW,287,12.0,15.0,36,0.00,CLR,,0.00,WeatherDisplay:10.37,2013-03-13 21:29:00,
2013-03-13 17:39:00,39.6,16.6,29.96,West,279,10.0,16.0,39,0.00,CLR,,0.00,WeatherDisplay:10.37,2013-03-13 21:39:00,
2013-03-13 17:49:00,41.0,16.7,29.96,West,277,8.0,16.0,37,0.00,CLR,,0.00,WeatherDisplay:10.37,2013-03-13 21:49:00,
2013-03-13 17:59:00,41.0,14.1,29.96,West,276,8.0,17.0,33,0.00,CLR,,0.00,WeatherDisplay:10.37,2013-03-13 21:59:00,
2013-03-13 18:09:00,39.6,13.5,29.96,West,278,10.0,17.0,34,0.00,CLR,,0.00,WeatherDisplay:10.37,2013-03-13 22:09:00,
2013-03-13 18:19:00,39.5,12.0,29.96,WNW,285,10.0,20.0,32,0.00,CLR,,0.00,WeatherDisplay:10.37,2013-03-13 22:19:00,
2013-03-13 18:29:00,39.1,10.9,29.99,WNW,283,14.0,23.0,31,0.00,CLR,,0.00,WeatherDisplay:10.37,2013-03-13 22:29:00,
2013-03-13 18:39:00,38.5,10.4,29.99,WNW,299,7.0,21.0,31,0.00,CLR,,0.00,WeatherDisplay:10.37,2013-03-13 22:39:00,
2013-03-13 18:49:00,38.1,9.4,29.99,WNW,294,6.0,13.0,30,0.00,CLR,,0.00,WeatherDisplay:10.37,2013-03-13 22:49:00,
2013-03-13 18:59:00,37.8,9.1,29.96,WNW,303,8.0,14.0,30,0.00,CLR,,0.00,WeatherDisplay:10.37,2013-03-13 22:59:00,
2013-03-13 19:09:00,37.8,8.3,29.99,WNW,296,10.0,25.0,29,0.00,CLR,,0.00,WeatherDisplay:10.37,2013-03-13 23:09:00,
2013-03-13 19:19:00,37.6,8.1,29.99,WNW,291,7.0,25.0,29,0.00,CLR,,0.00,WeatherDisplay:10.37,2013-03-13 23:19:00,
2013-03-13 19:29:00,37.2,8.6,29.99,NW,308,10.0,20.0,30,0.00,CLR,,0.00,WeatherDisplay:10.37,2013-03-13 23:29:00,
2013-03-13 19:39:00,36.9,8.3,30.02,NW,307,8.0,13.0,30,0.00,CLR,,0.00,WeatherDisplay:10.37,2013-03-13 23:39:00,
2013-03-13 19:49:00,36.9,7.5,30.02,WNW,282,9.0,16.0,29,0.00,CLR,,0.00,WeatherDisplay:10.37,2013-03-13 23:49:00,
2013-03-13 19:59:00,36.5,6.4,30.02,WNW,288,7.0,17.0,28,0.00,CLR,,0.00,WeatherDisplay:10.37,2013-03-13 23:59:00,
2013-03-13 20:09:00,35.8,5.0,30.02,WNW,296,9.0,12.0,27,0.00,CLR,,0.00,WeatherDisplay:10.37,2013-03-14 00:09:00,
2013-03-13 20:19:00,35.8,5.0,30.02,WNW,288,6.0,13.0,27,0.00,CLR,,0.00,WeatherDisplay:10.37,2013-03-14 00:19:00,
2013-03-13 20:29:00,35.4,4.7,30.02,WNW,289,12.0,16.0,27,0.00,CLR,,0.00,WeatherDisplay:10.37,2013-03-14 00:29:00,
2013-03-13 20:39:00,35.6,3.2,30.05,WNW,299,7.0,14.0,25,0.00,CLR,,0.00,WeatherDisplay:10.37,2013-03-14 00:39:00,
2013-03-13 20:49:00,35.4,3.0,30.05,WNW,293,8.0,17.0,25,0.00,CLR,,0.00,WeatherDisplay:10.37,2013-03-14 00:49:00,
2013-03-13 20:59:00,35.4,4.7,30.05,WNW,282,8.0,15.0,27,0.00,CLR,,0.00,WeatherDisplay:10.37,2013-03-14 00:59:00,
2013-03-13 21:09:00,34.9,6.6,30.05,WNW,282,9.0,14.0,30,0.00,CLR,,0.00,WeatherDisplay:10.37,2013-03-14 01:09:00,
2013-03-13 21:19:00,34.3,6.1,30.05,WNW,298,9.0,17.0,30,0.00,CLR,,0.00,WeatherDisplay:10.37,2013-03-14 01:19:00,
2013-03-13 21:29:00,33.8,7.0,30.05,West,280,9.0,15.0,32,0.00,CLR,,0.00,WeatherDisplay:10.37,2013-03-14 01:29:00,
2013-03-13 21:39:00,33.3,7.9,30.05,WNW,295,12.0,22.0,34,0.00,CLR,,0.00,WeatherDisplay:10.37,2013-03-14 01:39:00,
2013-03-13 21:49:00,33.1,7.8,30.05,WNW,283,8.0,17.0,34,0.00,CLR,,0.00,WeatherDisplay:10.37,2013-03-14 01:49:00,
2013-03-13 21:59:00,32.8,8.1,30.05,WNW,282,8.0,17.0,35,0.00,CLR,,0.00,WeatherDisplay:10.37,2013-03-14 01:59:00,
2013-03-13 22:09:00,32.5,9.7,30.08,WNW,282,9.0,18.0,38,0.00,CLR,,0.00,WeatherDisplay:10.37,2013-03-14 02:09:00,
2013-03-13 22:19:00,32.4,10.7,30.08,West,281,10.0,15.0,40,0.00,CLR,,0.00,WeatherDisplay:10.37,2013-03-14 02:19:00,
2013-03-13 22:29:00,32.0,10.4,30.08,WNW,289,7.0,13.0,40,0.00,CLR,,0.00,WeatherDisplay:10.37,2013-03-14 02:29:00,
2013-03-13 22:39:00,32.2,8.8,30.05,WNW,282,10.0,15.0,37,0.00,CLR,,0.00,WeatherDisplay:10.37,2013-03-14 02:39:00,
2013-03-13 22:49:00,32.2,7.6,30.05,WNW,288,8.0,18.0,35,0.00,CLR,,0.00,WeatherDisplay:10.37,2013-03-14 02:49:00,
2013-03-13 22:59:00,31.8,7.2,30.08,West,281,8.0,15.0,35,0.00,CLR,,0.00,WeatherDisplay:10.37,2013-03-14 02:59:00,
2013-03-13 23:09:00,31.6,6.4,30.08,WNW,294,7.0,13.0,34,0.00,CLR,,0.00,WeatherDisplay:10.37,2013-03-14 03:09:00,
2013-03-13 23:19:00,31.6,5.8,30.08,WNW,288,7.0,13.0,33,0.00,CLR,,0.00,WeatherDisplay:10.37,2013-03-14 03:19:00,
2013-03-13 23:29:00,32.1,5.5,30.08,WNW,289,7.0,15.0,32,0.00,CLR,,0.00,WeatherDisplay:10.37,2013-03-14 03:29:00,
2013-03-13 23:39:00,32.0,5.4,30.08,WNW,284,7.0,13.0,32,0.00,CLR,,0.00,WeatherDisplay:10.37,2013-03-14 03:39:00,
2013-03-13 23:49:00,32.0,5.4,30.08,WNW,293,9.0,13.0,32,0.00,CLR,,0.00,WeatherDisplay:10.37,2013-03-14 03:49:00,
2013-03-13 23:59:00,32.0,4.7,30.08,WNW,297,7.0,14.0,31,0.00,CLR,,0.00,WeatherDisplay:10.37,2013-03-14 03:59:00,